Fort Indiantown Gap, PA

9:54 PM EST on December 10, 2019 (GMT -0500)
Muir Army Air Field

Weather History for KMUI - October, 2019

Change the Weather History Date:

Tuesday, October 15, 2019

  Actual Average Record
Temperature  
Mean Temperature 52 °F -  
Max Temperature 64 °F 61 °F 77 °F (2008)
Min Temperature 40 °F 44 °F 34 °F (2016)
Degree Days  
Heating Degree Days 13    
Growing Degree Days 2 (Base 50)    
Moisture  
Dew Point 40 °F    
Average Humidity 63    
Maximum Humidity 91    
Minimum Humidity 39    
Precipitation  
Precipitation 0.00 in - - ()
Sea Level Pressure  
Sea Level Pressure 30.12 in    
Wind  
Wind Speed 2 mph (SSW)    
Max Wind Speed 7 mph    
Max Gust Speed -    
Visibility 10 miles    
Events      
Averages and records for this station are not official NWS values.
T = Trace of Precipitation, MM = Missing Value Source: NWS Daily Summary

Daily Weather History Graph

Daily Weather History Graph

Search for Another Location

Airport or City:

Astronomy

Oct. 15, 2019 Rise Set
Actual Time 7:16 AM EDT 6:26 PM EDT
Civil Twilight 6:49 AM EDT 6:54 PM EDT
Nautical Twilight 6:17 AM EDT 7:25 PM EDT
Astronomical Twilight 5:46 AM EDT 7:57 PM EDT
Moon 7:45 PM EDT (10/15) 8:45 AM EDT (10/15)
Length of Visible Light 12h 04m
Length of Day
11h 09m
Full, 97% of the Moon is Illuminated
Oct 15
Full
Oct 21
Last Quarter
Oct 27
New
Nov 4
First Quarter
Nov 12
Full

Hourly Weather History & Observations

Time (EDT) Temp. Dew Point Humidity Pressure Visibility Wind Dir Wind Speed Gust Speed Precip Events Conditions
12:56 AM 54.5 °F 38.1 °F 54% 30.09 in 10.0 mi NNW 4.6 mph - N/A   Clear
1:56 AM 53.2 °F 38.5 °F 57% 30.11 in 10.0 mi NNW 3.5 mph - N/A   Clear
2:56 AM 50.2 °F 38.8 °F 65% 30.12 in 10.0 mi ENE 3.5 mph - N/A   Clear
3:56 AM 49.6 °F 39.9 °F 69% 30.13 in 10.0 mi NE 3.5 mph - N/A   Clear
5:56 AM 43.0 °F 39.0 °F 86% 30.17 in 10.0 mi Calm Calm - N/A   Clear
6:56 AM 40.3 °F 37.9 °F 91% 30.19 in 10.0 mi Calm Calm - N/A   Clear
7:56 AM 40.8 °F 38.1 °F 90% 30.20 in 10.0 mi Calm Calm - N/A   Clear
8:56 AM 46.9 °F 41.4 °F 81% 30.21 in 10.0 mi Calm Calm - N/A   Clear
9:56 AM 53.1 °F 41.5 °F 65% 30.20 in 10.0 mi Calm Calm - N/A   Clear
10:56 AM 56.1 °F 40.6 °F 56% 30.20 in 10.0 mi Calm Calm - N/A   Clear
11:56 AM 58.1 °F 38.5 °F 48% 30.18 in 10.0 mi SSE 3.5 mph - N/A   Clear
12:56 PM 61.2 °F 40.3 °F 46% 30.16 in 10.0 mi WSW 4.6 mph - N/A   Partly Cloudy
1:56 PM 63.0 °F 39.6 °F 42% 30.14 in 9.0 mi South 4.6 mph - N/A   Partly Cloudy
2:56 PM 63.7 °F 38.8 °F 40% 30.12 in 10.0 mi SW 6.9 mph - N/A   Partly Cloudy
3:56 PM 63.9 °F 39.0 °F 40% 30.09 in 10.0 mi SE 4.6 mph - N/A   Partly Cloudy
4:56 PM 64.6 °F 39.0 °F 39% 30.07 in 10.0 mi WSW 4.6 mph - N/A   Clear
5:56 PM 62.6 °F 39.7 °F 43% 30.06 in 8.0 mi Calm Calm - N/A   Clear
6:56 PM 54.5 °F 42.1 °F 63% 30.06 in 10.0 mi Calm Calm - N/A   Clear
7:56 PM 50.9 °F 41.2 °F 69% 30.07 in 10.0 mi Calm Calm - N/A   Clear
8:56 PM 50.4 °F 40.3 °F 68% 30.06 in 10.0 mi Calm Calm - N/A   Clear
9:56 PM 46.8 °F 40.6 °F 79% 30.04 in 10.0 mi Calm Calm - N/A   Clear
10:56 PM 45.0 °F 40.1 °F 83% 30.04 in 10.0 mi Calm Calm - N/A   Clear
11:56 PM 44.1 °F 40.1 °F 86% 30.04 in 10.0 mi Calm Calm - N/A   Clear